Khabarovsk, Russia

12:09 AM +10 on September 22, 2019 (GMT +1000)
Novy

Weather History for UHHH - August, 2019

Change the Weather History Date:

Tuesday, August 20, 2019

  Actual Average Record
Temperature  
Mean Temperature 66 °F -  
Max Temperature 71 °F 67 °F 86 °F (2017)
Min Temperature 62 °F 49 °F 48 °F (2008)
Cooling Degree Days 2    
Growing Degree Days 16 (Base 50)    
Moisture  
Dew Point 64 °F    
Average Humidity 93    
Maximum Humidity 100    
Minimum Humidity 70    
Precipitation  
Precipitation 0.00 in 0.15 in - ()
Sea Level Pressure  
Sea Level Pressure 29.87 in    
Wind  
Wind Speed 5 mph ()    
Max Wind Speed 11 mph    
Max Gust Speed 16 mph    
Visibility 4.6 miles    
Events Fog , Rain    
Averages and records for this station are not official NWS values.
T = Trace of Precipitation, MM = Missing Value Source: Averaged Metar Reports

Daily Weather History Graph

Daily Weather History Graph

Search for Another Location

Airport or City:

Astronomy

Aug. 20, 2019 Rise Set
Actual Time 5:58 AM +10 8:06 PM +10
Civil Twilight 5:24 AM +10 8:40 PM +10
Nautical Twilight 4:42 AM +10 9:22 PM +10
Astronomical Twilight 3:54 AM +10 10:09 PM +10
Moon 10:17 PM +10 (8/20) 10:18 AM +10 (8/20)
Length of Visible Light 15h 15m
Length of Day
14h 07m
Waning Gibbous, 82% of the Moon is Illuminated
Aug 20
Waning Gibbous
Aug 24
Last Quarter
Aug 30
New
Sep 6
First Quarter
Sep 14
Full

Hourly Weather History & Observations

Time (+10) Temp. Dew Point Humidity Pressure Visibility Wind Dir Wind Speed Gust Speed Precip Events Conditions
12:00 AM 64.4 °F 64.4 °F 100% 29.89 in 4.3 mi NNE 2.2 mph - N/A   Partly Cloudy
12:30 AM 62.6 °F 62.6 °F 100% 29.89 in 5.6 mi North 4.5 mph - N/A   Partly Cloudy
1:00 AM 63 °F 63 °F 100% 29.89 in 0 mi North 4.5 mph - - Fog Partial Fog
1:00 AM 64.4 °F 64.4 °F 100% 29.89 in 0.2 mi North 4.5 mph - N/A Fog Fog
1:30 AM 64.4 °F 64.4 °F 100% 29.89 in 0.2 mi NNE 4.5 mph - N/A Fog Fog
2:00 AM 64.4 °F 64.4 °F 100% 29.89 in - NNE 4.5 mph - N/A   Partly Cloudy
2:30 AM 64.4 °F 64.4 °F 100% 29.89 in 3.7 mi NNE 6.7 mph - N/A   Scattered Clouds
3:00 AM 64.4 °F 64.4 °F 100% 29.89 in 1.2 mi NE 6.7 mph - N/A Rain Light Rain Showers
3:30 AM 64.4 °F 64.4 °F 100% 29.86 in 1.4 mi NE 6.7 mph - N/A   Scattered Clouds
4:00 AM 64 °F 64 °F 99% 29.88 in 1 mi NE 4.5 mph - - Rain Light Rain Showers
4:00 AM 64.4 °F 64.4 °F 100% 29.86 in 0.7 mi NE 4.5 mph - N/A   Mostly Cloudy
4:30 AM 64.4 °F 64.4 °F 100% 29.86 in 0.2 mi NE 4.5 mph - N/A Fog Fog
5:00 AM 64.4 °F 64.4 °F 100% 29.86 in 0.2 mi NE 4.5 mph - N/A Fog Fog
5:30 AM 64.4 °F 64.4 °F 100% 29.86 in 0.3 mi NNE 4.5 mph - N/A Fog Fog
6:00 AM 64.4 °F 64.4 °F 100% 29.86 in 0.5 mi Variable 2.2 mph - N/A Fog Fog
6:30 AM 64.4 °F 64.4 °F 100% 29.86 in 2.8 mi NE 4.5 mph - N/A Rain Light Rain Showers
7:00 AM 64 °F 64 °F 98% 29.89 in 6 mi East 4.5 mph - - Rain Light Rain Showers
7:00 AM 64.4 °F 64.4 °F 100% 29.89 in 6.2 mi East 4.5 mph - N/A Rain Light Rain Showers
7:30 AM 64.4 °F 64.4 °F 100% 29.86 in 6.2 mi NNE 4.5 mph - N/A Rain Light Rain Showers
8:00 AM 64.4 °F 64.4 °F 100% 29.86 in 6.2 mi Variable 2.2 mph - N/A Rain Light Rain Showers
8:30 AM 64.4 °F 64.4 °F 100% 29.89 in 5.6 mi North 4.5 mph - N/A   Overcast
9:00 AM 64.4 °F 64.4 °F 100% 29.89 in 6.2 mi Variable 2.2 mph - N/A   Mostly Cloudy
10:00 AM 66 °F 66 °F 100% 29.88 in 6 mi WNW 4.5 mph - -   Partly Cloudy
10:00 AM 66.2 °F 66.2 °F 100% 29.86 in 6.2 mi WNW 4.5 mph 15.7 mph N/A   Mostly Cloudy
10:30 AM 68.0 °F 66.2 °F 94% 29.86 in 6.2 mi WSW 4.5 mph - N/A   Mostly Cloudy
11:30 AM 69.8 °F 64.4 °F 83% 29.86 in 6.2 mi South 4.5 mph - N/A   Mostly Cloudy
12:00 PM 69.8 °F 66.2 °F 88% 29.86 in 6.2 mi SW 6.7 mph - N/A   Mostly Cloudy
12:30 PM 69.8 °F 66.2 °F 88% 29.86 in 6.2 mi NNW 6.7 mph - N/A   Mostly Cloudy
1:00 PM 69 °F 65 °F 84% 29.87 in 6 mi NNW 11.2 mph - -   Mostly Cloudy
1:00 PM 68.0 °F 64.4 °F 88% 29.86 in 6.2 mi NNW 11.2 mph - N/A   Mostly Cloudy
1:30 PM 69.8 °F 66.2 °F 88% 29.86 in 6.2 mi North 8.9 mph - N/A   Mostly Cloudy
2:00 PM 69.8 °F 64.4 °F 83% 29.86 in 6.2 mi North 8.9 mph - N/A   Mostly Cloudy
3:30 PM 71.6 °F 64.4 °F 78% 29.86 in 6.2 mi North 8.9 mph - N/A   Partly Cloudy
4:00 PM 71 °F 63 °F 70% 29.86 in 6 mi North 8.9 mph - -   Scattered Clouds
4:00 PM 71.6 °F 62.6 °F 73% 29.86 in 6.2 mi North 8.9 mph - N/A   Partly Cloudy
4:30 PM 71.6 °F 64.4 °F 78% 29.83 in 6.2 mi NNE 8.9 mph - N/A   Partly Cloudy
5:00 PM 71.6 °F 64.4 °F 78% 29.83 in 6.2 mi North 8.9 mph - N/A   Partly Cloudy
5:30 PM 71.6 °F 64.4 °F 78% 29.86 in 6.2 mi NNE 8.9 mph - N/A   Partly Cloudy
6:00 PM 69.8 °F 64.4 °F 83% 29.86 in 6.2 mi NNE 8.9 mph - N/A   Partly Cloudy
6:30 PM 69.8 °F 64.4 °F 83% 29.86 in 6.2 mi NNE 8.9 mph - N/A   Partly Cloudy
7:00 PM 69 °F 64 °F 81% 29.86 in 6 mi NNE 6.7 mph - -   Scattered Clouds
7:00 PM 69.8 °F 64.4 °F 83% 29.86 in 6.2 mi NE 8.9 mph - N/A   Partly Cloudy
7:30 PM 68.0 °F 64.4 °F 88% 29.86 in 6.2 mi NE 4.5 mph - N/A   Partly Cloudy
8:30 PM 66.2 °F 64.4 °F 94% 29.86 in - NE 4.5 mph - N/A   Clear
9:00 PM 64.4 °F 62.6 °F 94% 29.89 in - NE 4.5 mph - N/A   Clear
9:30 PM 64.4 °F 62.6 °F 94% 29.89 in - NNE 6.7 mph - N/A   Clear
10:00 PM 64 °F 63 °F 96% 29.89 in 6 mi NE 4.5 mph - -   Scattered Clouds
10:00 PM 64.4 °F 64.4 °F 100% 29.89 in - NE 6.7 mph - N/A   Clear
10:30 PM 62.6 °F 62.6 °F 100% 29.89 in 6.2 mi NNE 4.5 mph - N/A   Partly Cloudy
11:00 PM 64.4 °F 64.4 °F 100% 29.89 in 6.2 mi NNE 4.5 mph - N/A   Partly Cloudy
11:30 PM 64.4 °F 64.4 °F 100% 29.86 in 6.2 mi NNE 6.7 mph - N/A   Partly Cloudy